Topeka, KS

10:53 AM CDT on May 23, 2017 (GMT -0500)
Billard Municipal

Weather History for KTOP - December, 2011

Change the Weather History Date:

Saturday, December 3, 2011

  Actual Average Record
Temperature  
Mean Temperature 43 °F 35 °F  
Max Temperature 51 °F 45 °F 74 °F (2012)
Min Temperature 34 °F 25 °F 5 °F (1893)
Degree Days  
Heating Degree Days 22 30  
Month to date heating degree days 83 88  
Since 1 July heating degree days 997 1082  
Cooling Degree Days 0 0  
Month to date cooling degree days 0 0  
Year to date cooling degree days 1924 1422  
Moisture  
Dew Point 45 °F    
Average Humidity 96    
Maximum Humidity 100    
Minimum Humidity 92    
Precipitation  
Precipitation 1.20 in 0.05 in 2.13 in (1947)
Month to date precipitation 1.25 0.16  
Year to date precipitation 30.73 35.27  
Snow  
Snow T in 0.20 in 4.80 in (1921)
Month to date snowfall T 0.4  
Year to date snowfall 38.5 13.0  
Since 1 July snowfall T 1.7  
Snow Depth 0.00 in    
Sea Level Pressure  
Sea Level Pressure 29.98 in    
Wind  
Wind Speed 7 mph (South)    
Max Wind Speed 18 mph    
Max Gust Speed 24 mph    
Visibility 5 miles    
Events Rain , Thunderstorm    
T = Trace of Precipitation, MM = Missing Value Source: NWS Daily Summary

Daily Weather History Graph

Daily Weather History Graph

Search for Another Location

Airport or City:

Trip Planner

Search our weather history database for the weather conditions in past years. The results will help you decide how hot, cold, wet, or windy it might be!

Date:

Astronomy

Dec. 03, 2011 Rise Set
Actual Time 7:24 AM CST 5:00 PM CST
Civil Twilight 6:54 AM CST 5:29 PM CST
Nautical Twilight 6:21 AM CST 6:02 PM CST
Astronomical Twilight 5:49 AM CST 6:35 PM CST
Moon 1:02 PM CST (12/3) 12:56 AM CST (12/3)
Length of Visible Light 10h 35m
Length of Day
9h 35m
Waxing Gibbous, 63% of the Moon is Illuminated
Dec 3
Waxing Gibbous
Dec 10
Full
Dec 17
Last Quarter
Dec 24
New
Jan 1
First Quarter

Hourly Weather History & Observations

Time (CST) Temp. Windchill Dew Point Humidity Pressure Visibility Wind Dir Wind Speed Gust Speed Precip Events Conditions
12:53 AM 43.0 °F 37.7 °F 42.1 °F 97% 30.12 in 4.0 mi South 9.2 mph - N/A   Overcast
1:43 AM 44.6 °F 42.2 °F 42.8 °F 93% 30.09 in 4.0 mi South 4.6 mph - 0.00 in   Overcast
1:53 AM 44.1 °F 40.8 °F 43.0 °F 96% 30.10 in 4.0 mi South 5.8 mph - 0.00 in   Overcast
2:53 AM 46.0 °F 41.9 °F 43.0 °F 89% 30.09 in 5.0 mi South 8.1 mph - 0.00 in Rain Light Rain
3:21 AM 46.4 °F 43.5 °F 44.6 °F 93% 30.09 in 6.0 mi SSW 5.8 mph - 0.00 in   Overcast
3:53 AM 46.0 °F - 44.1 °F 93% 30.10 in 6.0 mi Calm Calm - 0.00 in Rain Light Rain
4:39 AM 46.4 °F - 44.6 °F 93% 30.09 in 3.0 mi Calm Calm - 0.04 in Rain Rain
4:53 AM 46.0 °F - 45.0 °F 96% 30.11 in 3.0 mi Calm Calm - 0.07 in Rain Rain
4:56 AM 46.4 °F 45.2 °F 44.6 °F 93% 30.10 in 2.5 mi South 3.5 mph - 0.01 in Rain Rain
5:41 AM 44.6 °F - 44.6 °F 100% 30.09 in 3.0 mi Calm Calm - 0.11 in Rain Light Rain
5:48 AM 44.6 °F - 44.6 °F 100% 30.09 in 1.8 mi Calm Calm - N/A Rain Light Rain
5:53 AM 45.0 °F 43.5 °F 44.1 °F 97% 30.10 in 1.2 mi NNE 3.5 mph - 0.13 in Rain Rain
6:34 AM 44.6 °F 42.2 °F 44.6 °F 100% 30.08 in 1.2 mi East 4.6 mph - 0.05 in Rain Light Rain
6:53 AM 44.1 °F 40.8 °F 44.1 °F 100% 30.09 in 1.5 mi East 5.8 mph - 0.07 in Rain Rain
7:06 AM 44.6 °F 40.7 °F 44.6 °F 100% 30.07 in 2.5 mi ESE 6.9 mph - 0.02 in Rain Rain
7:13 AM 46.4 °F 42.9 °F 44.6 °F 93% 30.06 in 3.0 mi ESE 6.9 mph - 0.04 in Rain Rain
7:45 AM 46.4 °F 43.5 °F 46.4 °F 100% 30.05 in 7.0 mi ESE 5.8 mph - 0.10 in Rain Light Rain
7:53 AM 46.9 °F - 46.0 °F 97% 30.06 in 6.0 mi ESE 6.9 mph - 0.11 in Rain Light Rain
8:53 AM 46.9 °F - 46.0 °F 97% 30.03 in 8.0 mi East 5.8 mph - 0.05 in   Overcast
9:03 AM 46.4 °F 42.4 °F 46.4 °F 100% 30.01 in 8.0 mi East 8.1 mph - N/A   Overcast
9:53 AM 46.9 °F - 46.0 °F 97% 29.99 in 4.0 mi ESE 9.2 mph - 0.01 in Rain Light Rain
10:14 AM 48.2 °F - 44.6 °F 87% 29.95 in 8.0 mi ESE 10.4 mph - 0.01 in Rain Light Rain
10:53 AM 48.0 °F - 45.0 °F 89% 29.95 in 10.0 mi SSE 11.5 mph - 0.01 in Rain Light Rain
11:04 AM 48.2 °F - 44.6 °F 87% 30.02 in 2.5 mi WSW 15.0 mph 20.7 mph N/A Rain , Thunderstorm Light Thunderstorms and Rain
11:24 AM 46.4 °F 45.2 °F 46.4 °F 100% 29.99 in 2.5 mi WNW 3.5 mph - 0.23 in Rain Rain
11:31 AM 46.4 °F - 46.4 °F 100% 29.98 in 2.5 mi Calm Calm - 0.27 in Rain Heavy Rain
11:53 AM 46.0 °F 43.9 °F 46.0 °F 100% 29.97 in 2.5 mi ESE 4.6 mph - 0.40 in Rain Rain
12:01 PM 46.4 °F 42.9 °F 46.4 °F 100% 29.95 in 1.5 mi ESE 6.9 mph - 0.05 in Rain Heavy Rain
12:17 PM 46.4 °F 43.5 °F 46.4 °F 100% 29.93 in 2.0 mi East 5.8 mph - N/A Rain Light Rain
12:53 PM 46.9 °F - 46.0 °F 97% 29.90 in 2.0 mi ESE 8.1 mph - 0.23 in Rain Rain
1:07 PM 46.4 °F 41.5 °F 46.4 °F 100% 29.86 in 3.0 mi ESE 10.4 mph - 0.05 in Rain Light Rain
1:23 PM 48.2 °F - 46.4 °F 93% 29.85 in 8.0 mi SE 8.1 mph - 0.06 in Rain Light Rain
1:41 PM 48.2 °F - 46.4 °F 93% 29.85 in 10.0 mi SSE 9.2 mph - 0.06 in Rain Light Rain
1:53 PM 48.2 °F - 46.4 °F 93% 29.85 in 10.0 mi SSE 6.9 mph - N/A Rain Light Rain
2:53 PM 48.9 °F - 48.0 °F 97% 29.83 in 3.0 mi SSE 6.9 mph - 0.02 in Rain Light Rain
3:35 PM 50.0 °F - 48.2 °F 94% 29.82 in 2.5 mi South 6.9 mph - 0.00 in Rain Light Rain
3:42 PM 50.0 °F - 50.0 °F 100% 29.83 in 2.5 mi SSW 5.8 mph - 0.01 in   Overcast
3:53 PM 51.1 °F - 50.0 °F 96% 29.83 in 2.5 mi SW 4.6 mph - 0.01 in   Overcast
4:07 PM 51.8 °F - 50.0 °F 94% 29.83 in 1.5 mi SW 6.9 mph - 0.00 in Rain Light Rain
4:44 PM 50.0 °F - 50.0 °F 100% 29.84 in 2.5 mi West 3.5 mph - 0.02 in   Overcast
4:53 PM 50.0 °F - 50.0 °F 100% 29.84 in 2.5 mi Calm Calm - 0.02 in   Overcast
5:01 PM 50.0 °F - 50.0 °F 100% 29.84 in 5.0 mi WSW 3.5 mph - N/A   Overcast
5:10 PM 50.0 °F - 50.0 °F 100% 29.84 in 8.0 mi Calm Calm - N/A   Overcast
5:38 PM 51.8 °F - 50.0 °F 94% 29.85 in 4.0 mi WSW 8.1 mph - 0.01 in   Overcast
5:53 PM 50.0 °F - 48.9 °F 96% 29.86 in 5.0 mi WSW 8.1 mph 17.3 mph 0.01 in   Overcast
6:20 PM 50.0 °F - 48.2 °F 94% 29.87 in 10.0 mi WSW 9.2 mph 17.3 mph N/A   Overcast
6:53 PM 48.9 °F - 46.9 °F 93% 29.88 in 10.0 mi West 9.2 mph - N/A   Overcast
7:09 PM 48.2 °F - 46.4 °F 93% 29.89 in 10.0 mi WNW 13.8 mph 19.6 mph N/A   Overcast
7:53 PM 39.0 °F 32.3 °F 37.9 °F 96% 29.94 in 10.0 mi NW 10.4 mph - N/A   Overcast
8:53 PM 37.0 °F 30.4 °F 37.0 °F 100% 29.98 in 5.0 mi WNW 9.2 mph - N/A   Overcast
9:53 PM 35.1 °F 26.9 °F 34.0 °F 96% 30.01 in 6.0 mi WNW 11.5 mph - N/A   Overcast
10:46 PM 35.6 °F 27.5 °F 33.8 °F 93% 30.03 in 3.0 mi WNW 11.5 mph - N/A   Overcast
10:53 PM 35.1 °F 27.4 °F 34.0 °F 96% 30.04 in 2.5 mi NW 10.4 mph - N/A   Overcast
11:12 PM 35.6 °F 27.1 °F 33.8 °F 93% 30.02 in 4.0 mi NW 12.7 mph - 0.00 in   Overcast
11:32 PM 33.8 °F 27.0 °F 33.8 °F 100% 30.04 in 5.0 mi NW 8.1 mph - 0.00 in   Overcast
11:53 PM 34.0 °F 25.0 °F 33.1 °F 96% 30.06 in 6.0 mi NW 12.7 mph - 0.00 in   Overcast